Weather History for KFFO - November, 2013

Change the Weather History Date:

Sunday, November 3, 2013

  Actual Average Record
Temperature  
Mean Temperature 46 °F -  
Max Temperature 53 °F 55 °F 77 °F (2003)
Min Temperature 39 °F 37 °F 21 °F (2006)
Degree Days  
Heating Degree Days 18    
Moisture  
Dew Point 37 °F    
Average Humidity 77    
Maximum Humidity 89    
Minimum Humidity 53    
Precipitation  
Precipitation 0.00 in - - ()
Sea Level Pressure  
Sea Level Pressure 30.26 in    
Wind  
Wind Speed 5 mph (NNW)    
Max Wind Speed 7 mph    
Max Gust Speed -    
Visibility 10 miles    
Events      
Averages and records for this station are not official NWS values.
T = Trace of Precipitation, MM = Missing Value Source: NWS Daily Summary

Daily Weather History Graph

Daily Weather History Graph

Search for Another Location

Airport or City:

Trip Planner

Search our weather history database for the weather conditions in past years. The results will help you decide how hot, cold, wet, or windy it might be!

Date:

Astronomy

Nov. 03, 2013 Rise Set
Actual Time 7:07 AM EST 5:31 PM EST
Civil Twilight 6:39 AM EST 5:59 PM EST
Nautical Twilight 6:07 AM EST 6:31 PM EST
Astronomical Twilight 5:35 AM EST 7:03 PM EST
Moon 7:10 AM EST (11/3) 5:45 PM EST (11/3)
Length of Visible Light 11h 20m
Length of Day
10h 23m
New Moon, 0% of the Moon is Illuminated
Nov 3
New Moon
Nov 10
First Quarter
Nov 17
Full
Nov 25
Last Quarter
Dec 2
New

Hourly Weather History & Observations

Time (EST) Temp. Windchill Dew Point Humidity Pressure Visibility Wind Dir Wind Speed Gust Speed Precip Events Conditions
12:55 AM 44.6 °F 41.4 °F 41.0 °F 87% 30.08 in 10.0 mi Variable 5.8 mph - N/A   Overcast
1:58 AM 44.2 °F 41.8 °F 40.3 °F 86% 30.12 in 10.0 mi WNW 4.6 mph - N/A   Mostly Cloudy
1:58 AM 43.9 °F 41.3 °F 39.9 °F 86% 30.13 in 10.0 mi WNW 4.6 mph - N/A   Overcast
2:08 AM 44.6 °F 42.2 °F 39.2 °F 81% 30.12 in 10.0 mi West 4.6 mph - N/A   Overcast
2:58 AM 44.2 °F 41.8 °F 39.9 °F 85% 30.15 in 10.0 mi NW 4.6 mph - N/A   Overcast
3:58 AM 43.2 °F 40.5 °F 39.0 °F 85% 30.17 in 10.0 mi WNW 4.6 mph - N/A   Overcast
4:58 AM 42.3 °F 39.4 °F 38.3 °F 86% 30.20 in 10.0 mi West 4.6 mph - N/A   Overcast
5:08 AM 42.8 °F 40.1 °F 39.2 °F 87% 30.19 in 10.0 mi West 4.6 mph - N/A   Overcast
5:28 AM 42.8 °F 40.1 °F 39.2 °F 87% 30.20 in 10.0 mi WNW 4.6 mph - N/A   Overcast
5:58 AM 42.1 °F 38.4 °F 38.8 °F 88% 30.23 in 10.0 mi NW 5.8 mph - N/A   Overcast
6:18 AM 42.8 °F 40.1 °F 39.2 °F 87% 30.21 in 10.0 mi NW 4.6 mph - N/A   Overcast
6:48 AM 42.8 °F 39.3 °F 39.2 °F 87% 30.22 in 10.0 mi NW 5.8 mph - N/A   Overcast
6:58 AM 42.1 °F 37.7 °F 39.0 °F 89% 30.25 in 10.0 mi NW 6.9 mph - N/A   Overcast
7:28 AM 42.8 °F 40.1 °F 39.2 °F 87% 30.24 in 10.0 mi NNW 4.6 mph - N/A   Overcast
11:58 AM 48.2 °F - 38.5 °F 69% 30.35 in 10.0 mi NNW 3.5 mph - N/A   Mostly Cloudy
12:58 PM 49.3 °F - 38.1 °F 65% 30.33 in 10.0 mi Variable 1.2 mph - N/A   Scattered Clouds
1:58 PM 50.5 °F - 38.5 °F 63% 30.32 in 10.0 mi WSW 3.5 mph - N/A   Mostly Cloudy
2:58 PM 53.1 °F - 36.5 °F 53% 30.32 in 10.0 mi Variable 3.5 mph - N/A   Mostly Cloudy
3:58 PM 51.6 °F - 36.0 °F 55% 30.32 in 10.0 mi East 5.8 mph - N/A   Mostly Cloudy
4:58 PM 52.0 °F - 36.3 °F 55% 30.32 in 10.0 mi East 4.6 mph - N/A   Mostly Cloudy
5:58 PM 48.4 °F - 36.1 °F 63% 30.33 in 10.0 mi ENE 4.6 mph - N/A   Mostly Cloudy
6:58 PM 44.2 °F 41.8 °F 34.7 °F 69% 30.37 in 10.0 mi East 4.6 mph - N/A   Clear
7:58 PM 41.4 °F 38.4 °F 33.8 °F 74% 30.37 in 10.0 mi East 4.6 mph - N/A   Clear
8:58 PM 41.5 °F 38.6 °F 33.6 °F 73% 30.37 in 10.0 mi ENE 4.6 mph - N/A   Clear
9:58 PM 40.3 °F - 33.1 °F 75% 30.38 in 10.0 mi Calm Calm - N/A   Clear
10:38 PM 41.0 °F - 32.0 °F 70% 30.37 in 9.0 mi Variable 2.3 mph - N/A   Clear
10:58 PM 39.6 °F 37.4 °F 33.8 °F 80% 30.41 in 10.0 mi NE 3.5 mph - N/A   Clear